Погода Туапсе

Погода Туапсе : погода сейчас, прогноз погоды и архив. Всё, что Вы хотите узнать о погоде Туапсе!

Хотите узнать прогноз погоды Туапсе? Тогда Вам сюда: Погода Туапсе

Поиск расширенной информации на нашем сайте:

Другие новости

Новости СМИ2

Главная страница сайта

Новости сайта

02.10.2013

Напоминаем, что на нашем новом сайте вы можете получить высокодетализированные прогнозы погоды по пунктам России, СНГ и мира (включающие важные для авиации метеовеличины, такие как направление и скорость ветра, видимость, явления погоды, количество и форма облачности, нижняя и верхняя граница облачности), а также ознакомиться с разнообразными материалами по авиационной метеорологии и подборкой полезных ссылок на эту тему.

Сайт Метеоцентр.Азия посвящён разработке технологий оптимизации авиаметеорологического обслуживания, включая проектирование и перспективное создание нескольких автоматизированных авиаметеорологических систем:
- система выпуска высокодетальных прогностических карт явлений погоды для нижнего воздушного пространства по России и ближнему зарубежью;
- система верификации прогнозов TAF (выпускаемых синоптиками официальных АМСГ РФ и ближнего зарубежья) и AUTOTAF (выпускаемых сайтом Метеоцентр.Азия) - выявление ошибок, онлайн-сопоставление с фактической погодой METAR, автоматическое внесение коррективов в прогнозы при резком отклонении фактической погоды от прогноза, подсчёт оправдываемости прогнозов по элементам и в целом;
- система обработки, анализа и отображения авиаметеорологической информации для применения провайдерами метеорологической информации.


Погода Туапсе - сегодня

Время (UTC), дата Ветер
(°,м/с) 
Видим.   Явления Облачность Т
(°С)
Тd
(°С)
f(%) Тe
(°С)
Pmin
(гПа)
dP
(гПа)
Po
(мм)
O2
(г/м3)
Тmin Tmax R s Состояние
почвы
09 26.04.17 240 (ЮЗ) 20000 м    ясно 
+18.2 +1.4 32 +19  1027.3  -1.1  765  289           
12 26.04.17 240 (ЮЗ) 20000 м    ясно 
+21.1 -2.1 21 +21  1025.7  -1.5  764  286           
15 26.04.17 280 (З) 20000 м    ясно 
+18.2 -8.5 15 +20  1024  -1.7  763  289    +21.3       
18 26.04.17 030 (СВ) 10 км    ясно 
+16.6 -1.2 30 +17  1022.8  -1.2  762  289           
21 26.04.17 310 (СЗ) 10 км    ясно 
+12.1 +3.1 54 +13  1022.7  -0.2  761  293           
00 27.04.17 040 (СВ) 10 км    ясно 
+9.4 +2.3 61 +9  1022.3  -0.4  761  296           
03 27.04.17 050 (СВ) 20000 м    ясно 
+8 +2.3 67 +8  1022.4  761  298  +7.9        влажная 
06 27.04.17 170 (Ю) 20000 м    ясно 
+17.3 +0.8 33 +19  1022.8  0.6  762  288           
09 27.04.17 230 (ЮЗ) 20000 м    ясно 
+20.5 +1.8 29 +21  1022.1  -0.6  761  285           
12 27.04.17 260 (З) 20000 м    ясно 
+20.3 +4.2 35 +20  1021.5  -0.6  761  285           
15 27.04.17 260 (З) 20000 м    ясно 
+16.7 +1.8 37 +18  1020.6  -0.9  760  288    +21.8       
18 27.04.17 030 (СВ) 10 км    ясно 
+11.9 +3.1 55 +13  1021  0.2  760  293           
21 27.04.17 020 (С) 10 км    ясно 
+13.8 +2.3 46 +14  1019.6  -1.3  759  291           
00 28.04.17 040 (СВ) 10 км    ясно 
+10 +4 66 +10  1019.9  0.2  759  295           
03 28.04.17 050 (СВ) 20000 м    ясно 
+9.2 +3.8 69 +9  1019.7  -0.2  759  295  +8.9        влажная 
06 28.04.17 200 (Ю) 20000 м    ясно 
+18.5 +5.1 41 +20  1019.2  -0.3  759  286           
09 28.04.17 260 (З) 20000 м    ясно 
+22.5 +3.7 29 +23  1018.8  -0.2  759  282           
12 28.04.17 250 (З) 20000 м    ясно 
+23.2 +3.8 28 +23  1018.5  -0.4  758  281           
15 28.04.17 230 (ЮЗ) 20000 м    ясно 
+20.9 +5.1 36 +21  1017  -1.5  757  283    +24.3       
18 28.04.17 020 (С) 10 км    ясно 
+20.4 +1.7 29 +20  1017  757  284           
21 28.04.17 040 (СВ) 10 км    ясно 
+16.5 +3.3 41 +18  1016.9  -0.2  757  287           
00 29.04.17 030 (СВ) 10 км    ясно 
+16.5 +2.9 40 +17  1016  -0.9  757  287           
03 29.04.17 050 (СВ) 20000 м    ясно 
+12.6 +4.7 59 +13  1016.5  0.4  757  291  +12.6        влажная 
06 29.04.17 200 (Ю) 20000 м    ясно 
+17.8 +6.8 48 +19  1016.9  0.5  757  285  +12.5         
09 29.04.17 230 (ЮЗ) 20000 м    ясно 
+21.1 +4.4 33 +21  1016.1  -0.7  757  282           
Время (UTC), дата Ветер
(°,м/с) 
Видим.   Явления Облачность Т
(°С)
Тd
(°С)
f(%) Тe
(°С)
Pmin
(гПа)
dP
(гПа)
Po
(мм)
O2
(г/м3)
Тmin Tmax R s Состояние
почвы

Для получения пояснительной информации подведите курсор к названию столбца.

ПОГОДА Туапсе - архив

Всё, что Вы хотите узнать о погоде Туапсе - удобно и подробно!

Выберите нужную дату (начиная с 1 января 2015* года) и нажмите кнопку "Найти".
Будут отображены архивные сводки погоды по пункту Туапсе, начиная с указанной даты.


Отображать данные в формате CSV (для использования в таблицах Excel)


Внимание! Наш архив погоды предназначен исключительно для личного некоммерческого использования в познавательных целях. Если Вам необходимы официальные справки о состоянии погоды (для производственных, юридических, коммерческих и т.п. целей), обращайтесь в органы Росгидромета.

*Примечание: данная дата относится к архиву по метеостанциям СССР (Россия, СНГ, Балтия).
Архив по метеостанциям Зарубежной Европы и Азии (кроме Китая) хранится 10 дней, по другим регионам земного шара (Китай, Африка, Америка, Австралия, Океания) - 1 день.

Туапсе - район местоположения метеостанции


Название, широта, долгота, высота метеостанции:
Туапсе 44.1°ш. 39.1°д. 61 м над ур. моря [Российская Федерация]

Дополнительная информация

В oтличие oт бoльшинства пoгoдных сайтoв мы публикуем пoдрoбную метеoинфoрмацию в детальнoм прoфессиoнальнoм фoрмате.

Характеристики температуры и влажнoсти вoздуха измеряются на высoте 2 м в тени вдали oт зданий и деревьев.
Скoрoсть ветра измеряется на высoте 10 м (на урoвне рoста челoвека скoрoсть ветра ниже в 1.5-2 раза). Если метеoстанция нахoдится в гoрoде или в лесу, тo скoрoсть ветра занижена на 2-4 м/с пo сравнению с oткрытым местoм. Скoрoсть ветра над акватoриями крупных рек и oзёр, а также на вершинах хoлмoв на 2-5 м/с выше, чем в oбычных услoвиях.
Атмoсфернoе давление в разных тoчках местнoсти мoжет значительнo oтличаться oт давления на метеoстанции, в зависимoсти oт услoвий рельефа (при пoдъёме на 10 м давление пoнижается примернo на 1 мм рт.ст.).